Windom, MN

5:22 AM CST on February 18, 2018 (GMT -0600)
Windom Municipal

Weather History for KMWM - November, 2010

Change the Weather History Date:

Monday, November 1, 2010

  Actual Average Record
Temperature  
Mean Temperature 42 °F -  
Max Temperature 51 °F 52 °F 76 °F (1990)
Min Temperature 32 °F 32 °F 11 °F (1984)
Degree Days  
Heating Degree Days 24    
Moisture  
Dew Point 29 °F    
Average Humidity 63    
Maximum Humidity 81    
Minimum Humidity 41    
Precipitation  
Precipitation 0.00 in - - ()
Sea Level Pressure  
Sea Level Pressure 30.33 in    
Wind  
Wind Speed 6 mph (SSE)    
Max Wind Speed 9 mph    
Max Gust Speed -    
Visibility 10 miles    
Events      
Averages and records for this station are not official NWS values.
T = Trace of Precipitation, MM = Missing Value Source: NWS Daily Summary

Daily Weather History Graph

Daily Weather History Graph

Search for Another Location

Airport or City:

Trip Planner

Search our weather history database for the weather conditions in past years. The results will help you decide how hot, cold, wet, or windy it might be!

Date:

Astronomy

Nov. 01, 2010 Rise Set
Actual Time 7:56 AM CDT 6:10 PM CDT
Civil Twilight 7:26 AM CDT 6:40 PM CDT
Nautical Twilight 6:52 AM CDT 7:14 PM CDT
Astronomical Twilight 6:19 AM CDT 7:48 PM CDT
Moon 2:23 AM CDT (11/1) 3:27 PM CDT (11/1)
Length of Visible Light 11h 13m
Length of Day
10h 13m
Waning Crescent, 26% of the Moon is Illuminated
Nov 1
Waning Crescent
Nov 5
New
Nov 13
First Quarter
Nov 21
Full
Nov 28
Last Quarter

Hourly Weather History & Observations

Time (CDT) Temp. Windchill Dew Point Humidity Pressure Visibility Wind Dir Wind Speed Gust Speed Precip Events Conditions
12:13 AM 37.4 °F 32.1 °F 30.2 °F 75% 30.28 in 10.0 mi SE 6.9 mph - N/A   Clear
12:33 AM 37.4 °F 32.8 °F 30.2 °F 75% 30.27 in 10.0 mi ESE 5.8 mph - N/A   Scattered Clouds
12:53 AM 35.6 °F 32.8 °F 30.2 °F 81% 30.28 in 10.0 mi SSE 3.5 mph - N/A   Unknown
1:13 AM 35.6 °F 31.7 °F 30.2 °F 81% 30.29 in 10.0 mi SSE 4.6 mph - N/A   Unknown
1:33 AM 35.6 °F 29.9 °F 30.2 °F 81% 30.29 in 10.0 mi SE 6.9 mph - N/A   Clear
1:53 AM 35.6 °F 29.9 °F 30.2 °F 81% 30.29 in 10.0 mi SSE 6.9 mph - N/A   Clear
2:13 AM 35.6 °F 29.9 °F 28.4 °F 75% 30.29 in 10.0 mi SE 6.9 mph - N/A   Scattered Clouds
2:33 AM 35.6 °F 29.9 °F 28.4 °F 75% 30.29 in 10.0 mi SE 6.9 mph - N/A   Scattered Clouds
2:53 AM 33.8 °F 28.6 °F 28.4 °F 81% 30.29 in 10.0 mi SSE 5.8 mph - N/A   Unknown
3:13 AM 33.8 °F 28.6 °F 28.4 °F 81% 30.28 in 10.0 mi SE 5.8 mph - N/A   Unknown
3:33 AM 33.8 °F 27.7 °F 28.4 °F 81% 30.28 in 10.0 mi SSE 6.9 mph - N/A   Clear
3:53 AM 33.8 °F 27.0 °F 26.6 °F 75% 30.27 in 10.0 mi SSE 8.1 mph - N/A   Clear
4:13 AM 33.8 °F 27.7 °F 26.6 °F 75% 30.28 in 10.0 mi SSE 6.9 mph - N/A   Clear
4:33 AM 33.8 °F 28.6 °F 26.6 °F 75% 30.29 in 10.0 mi SSE 5.8 mph - N/A   Clear
4:53 AM 32.0 °F 27.5 °F 26.6 °F 80% 30.29 in 10.0 mi SSE 4.6 mph - N/A   Clear
5:13 AM 32.0 °F 26.4 °F 26.6 °F 80% 30.29 in 10.0 mi SE 5.8 mph - N/A   Clear
5:33 AM 33.8 °F 27.7 °F 26.6 °F 75% 30.29 in 10.0 mi SSE 6.9 mph - N/A   Mostly Cloudy
5:53 AM 33.8 °F 26.4 °F 26.6 °F 75% 30.30 in 10.0 mi SSE 9.2 mph - N/A   Overcast
6:13 AM 35.6 °F 29.9 °F 28.4 °F 75% 30.30 in 10.0 mi SSE 6.9 mph - N/A   Overcast
6:33 AM 35.6 °F 30.7 °F 28.4 °F 75% 30.31 in 10.0 mi SSE 5.8 mph - N/A   Overcast
6:53 AM 37.4 °F 32.8 °F 28.4 °F 70% 30.31 in 10.0 mi South 5.8 mph - N/A   Overcast
7:13 AM 35.6 °F 31.7 °F 28.4 °F 75% 30.32 in 10.0 mi South 4.6 mph - N/A   Overcast
7:33 AM 35.6 °F 30.7 °F 28.4 °F 75% 30.32 in 10.0 mi South 5.8 mph - N/A   Overcast
7:53 AM 35.6 °F 29.9 °F 28.4 °F 75% 30.32 in 10.0 mi South 6.9 mph - N/A   Overcast
8:13 AM 35.6 °F 29.9 °F 28.4 °F 75% 30.32 in 10.0 mi South 6.9 mph - N/A   Overcast
8:33 AM 37.4 °F 32.8 °F 28.4 °F 70% 30.33 in 10.0 mi South 5.8 mph - N/A   Overcast
8:53 AM 37.4 °F 32.8 °F 28.4 °F 70% 30.34 in 10.0 mi South 5.8 mph - N/A   Overcast
9:13 AM 37.4 °F 32.1 °F 28.4 °F 70% 30.34 in 10.0 mi SSE 6.9 mph - N/A   Overcast
9:33 AM 39.2 °F 34.2 °F 28.4 °F 65% 30.34 in 10.0 mi South 6.9 mph - N/A   Overcast
9:53 AM 41.0 °F 36.4 °F 28.4 °F 61% 30.35 in 10.0 mi SSE 6.9 mph - N/A   Overcast
10:13 AM 41.0 °F 35.8 °F 28.4 °F 61% 30.35 in 10.0 mi SSE 8.1 mph - N/A   Overcast
10:33 AM 42.8 °F 37.5 °F 28.4 °F 57% 30.35 in 10.0 mi South 9.2 mph - N/A   Overcast
10:53 AM 42.8 °F 38.0 °F 28.4 °F 57% 30.36 in 10.0 mi SSE 8.1 mph - N/A   Overcast
11:13 AM 42.8 °F 37.5 °F 28.4 °F 57% 30.36 in 10.0 mi SSE 9.2 mph - N/A   Overcast
11:33 AM 44.6 °F 40.2 °F 30.2 °F 57% 30.36 in 10.0 mi SSE 8.1 mph - N/A   Overcast
11:53 AM 44.6 °F 40.2 °F 30.2 °F 57% 30.36 in 10.0 mi SSE 8.1 mph - N/A   Overcast
12:13 PM 46.4 °F 42.4 °F 28.4 °F 50% 30.37 in 10.0 mi SSE 8.1 mph - N/A   Overcast
12:33 PM 48.2 °F - 30.2 °F 50% 30.37 in 10.0 mi SSE 8.1 mph - N/A   Overcast
12:53 PM 48.2 °F - 30.2 °F 50% 30.37 in 10.0 mi SSE 5.8 mph - N/A   Scattered Clouds
1:13 PM 48.2 °F - 28.4 °F 46% 30.37 in 10.0 mi SSE 8.1 mph - N/A   Clear
1:33 PM 48.2 °F - 30.2 °F 50% 30.37 in 10.0 mi South 6.9 mph - N/A   Clear
1:53 PM 48.2 °F - 28.4 °F 46% 30.36 in 10.0 mi SE 8.1 mph - N/A   Clear
2:13 PM 50.0 °F - 30.2 °F 47% 30.35 in 10.0 mi SE 9.2 mph - N/A   Clear
2:33 PM 48.2 °F - 28.4 °F 46% 30.35 in 10.0 mi South 8.1 mph - N/A   Clear
2:53 PM 48.2 °F - 30.2 °F 50% 30.35 in 10.0 mi SSE 5.8 mph - N/A   Clear
3:13 PM 50.0 °F - 30.2 °F 47% 30.35 in 10.0 mi SSE 4.6 mph - N/A   Clear
3:33 PM 50.0 °F - 30.2 °F 47% 30.34 in 10.0 mi SE 5.8 mph - N/A   Clear
3:53 PM 51.8 °F - 28.4 °F 41% 30.35 in 10.0 mi SSE 6.9 mph - N/A   Clear
4:13 PM 51.8 °F - 28.4 °F 41% 30.35 in 10.0 mi SE 6.9 mph - N/A   Clear
4:33 PM 51.8 °F - 28.4 °F 41% 30.35 in 10.0 mi SE 9.2 mph - N/A   Clear
4:53 PM 50.0 °F - 28.4 °F 43% 30.36 in 10.0 mi SE 6.9 mph - N/A   Clear
5:13 PM 50.0 °F - 28.4 °F 43% 30.36 in 10.0 mi SE 5.8 mph - N/A   Clear
5:33 PM 48.2 °F - 28.4 °F 46% 30.36 in 10.0 mi ESE 5.8 mph - N/A   Clear
5:53 PM 46.4 °F 45.2 °F 30.2 °F 53% 30.36 in 10.0 mi ESE 3.5 mph - N/A   Clear
6:13 PM 44.6 °F 42.2 °F 28.4 °F 53% 30.36 in 10.0 mi ESE 4.6 mph - N/A   Clear
6:33 PM 44.6 °F 42.2 °F 30.2 °F 57% 30.35 in 10.0 mi ESE 4.6 mph - N/A   Clear
6:53 PM 42.8 °F 40.1 °F 30.2 °F 61% 30.36 in 10.0 mi ESE 4.6 mph - N/A   Clear
7:13 PM 42.8 °F 40.1 °F 30.2 °F 61% 30.36 in 10.0 mi ESE 4.6 mph - N/A   Clear
7:33 PM 42.8 °F 39.3 °F 30.2 °F 61% 30.37 in 10.0 mi ESE 5.8 mph - N/A   Clear
7:53 PM 41.0 °F 35.8 °F 28.4 °F 61% 30.37 in 10.0 mi SE 8.1 mph - N/A   Clear
8:13 PM 41.0 °F 36.4 °F 30.2 °F 65% 30.37 in 10.0 mi ESE 6.9 mph - N/A   Clear
8:33 PM 39.2 °F 33.6 °F 30.2 °F 70% 30.37 in 10.0 mi ESE 8.1 mph - N/A   Clear
8:53 PM 39.2 °F 34.2 °F 30.2 °F 70% 30.37 in 10.0 mi ESE 6.9 mph - N/A   Clear
9:13 PM 37.4 °F - 30.2 °F 75% 30.37 in 10.0 mi Calm Calm - N/A   Clear
9:33 PM 39.2 °F 35.9 °F 28.4 °F 65% 30.38 in 10.0 mi SE 4.6 mph - N/A   Clear
9:53 PM 37.4 °F 34.9 °F 28.4 °F 70% 30.38 in 10.0 mi SE 3.5 mph - N/A   Clear
10:13 PM 37.4 °F 33.8 °F 28.4 °F 70% 30.38 in 10.0 mi SSE 4.6 mph - N/A   Clear
10:33 PM 37.4 °F 33.8 °F 28.4 °F 70% 30.38 in 10.0 mi SSE 4.6 mph - N/A   Clear
10:53 PM 37.4 °F 34.9 °F 28.4 °F 70% 30.39 in 10.0 mi SE 3.5 mph - N/A   Clear
11:13 PM 37.4 °F 30.8 °F 28.4 °F 70% 30.38 in 10.0 mi SSE 9.2 mph - N/A   Clear
11:33 PM 37.4 °F 32.8 °F 28.4 °F 70% 30.38 in 10.0 mi SSE 5.8 mph - N/A   Clear
11:53 PM 37.4 °F 32.1 °F 28.4 °F 70% 30.38 in 10.0 mi SSE 6.9 mph - N/A   Clear